Bingham Lake, MN

11:35 AM CDT on July 23, 2016 (GMT -0500)
Windom Municipal

Weather History for KMWM - November, 2010

Change the Weather History Date:

Thursday, November 25, 2010

  Actual Average Record
Temperature  
Mean Temperature 8 °F -  
Max Temperature 14 °F 38 °F 65 °F (1960)
Min Temperature 3 °F 19 °F -11 °F (1977)
Degree Days  
Heating Degree Days 56    
Moisture  
Dew Point 4 °F    
Average Humidity 80    
Maximum Humidity 86    
Minimum Humidity 72    
Precipitation  
Precipitation 0.00 in - - ()
Sea Level Pressure  
Sea Level Pressure 29.83 in    
Wind  
Wind Speed 15 mph (WSW)    
Max Wind Speed 26 mph    
Max Gust Speed 34 mph    
Visibility 10 miles    
Events Snow    
Averages and records for this station are not official NWS values.
T = Trace of Precipitation, MM = Missing Value Source: NWS Daily Summary

Daily Weather History Graph

Daily Weather History Graph

Search for Another Location

Airport or City:

Trip Planner

Search our weather history database for the weather conditions in past years. The results will help you decide how hot, cold, wet, or windy it might be!

Date:

Astronomy

Nov. 25, 2010 Rise Set
Actual Time 7:27 AM CST 4:46 PM CST
Civil Twilight 6:55 AM CST 5:18 PM CST
Nautical Twilight 6:20 AM CST 5:54 PM CST
Astronomical Twilight 5:45 AM CST 6:28 PM CST
Moon 8:45 PM CST (11/25) 10:58 AM CST (11/25)
Length of Visible Light 10h 22m
Length of Day
9h 18m
Waning Gibbous, 82% of the Moon is Illuminated
Nov 25
Waning Gibbous
Nov 28
Last Quarter
Dec 5
New
Dec 13
First Quarter
Dec 21
Full

Hourly Weather History & Observations

Time (CST) Temp. Windchill Dew Point Humidity Pressure Visibility Wind Dir Wind Speed Gust Speed Precip Events Conditions
12:13 AM 10.4 °F -7.7 °F 6.8 °F 85% 29.83 in 10.0 mi West 18.4 mph 23.0 mph N/A   Scattered Clouds
12:33 AM 10.4 °F -6.6 °F 6.8 °F 85% 29.81 in 10.0 mi West 16.1 mph - N/A   Clear
12:53 AM 10.4 °F -4.8 °F 6.8 °F 85% 29.82 in 10.0 mi West 12.7 mph - N/A   Clear
1:13 AM 10.4 °F -4.8 °F 6.8 °F 85% 29.82 in 10.0 mi West 12.7 mph - N/A   Clear
1:33 AM 10.4 °F -4.1 °F 6.8 °F 85% 29.83 in 10.0 mi West 11.5 mph - N/A   Clear
1:53 AM 10.4 °F -2.4 °F 6.8 °F 85% 29.82 in 10.0 mi West 9.2 mph - N/A   Clear
2:13 AM 10.4 °F -6.0 °F 5.0 °F 79% 29.82 in 10.0 mi West 15.0 mph - N/A   Clear
2:33 AM 8.6 °F -6.3 °F 5.0 °F 85% 29.82 in 10.0 mi West 11.5 mph - N/A   Clear
2:53 AM 8.6 °F -8.3 °F 3.2 °F 79% 29.83 in 10.0 mi West 15.0 mph - N/A   Clear
3:13 AM 8.6 °F -8.3 °F 3.2 °F 79% 29.83 in 10.0 mi West 15.0 mph - N/A   Clear
3:33 AM 6.8 °F -11.8 °F 1.4 °F 79% 29.83 in 10.0 mi West 17.3 mph 24.2 mph N/A   Clear
3:53 AM 6.8 °F -10.7 °F 1.4 °F 79% 29.83 in 10.0 mi West 15.0 mph - N/A   Clear
4:13 AM 6.8 °F -9.3 °F -0.4 °F 72% 29.84 in 10.0 mi West 12.7 mph - N/A   Clear
4:33 AM 5.0 °F -11.6 °F -0.4 °F 78% 29.85 in 10.0 mi West 12.7 mph - N/A   Clear
4:53 AM 5.0 °F -10.0 °F -2.2 °F 72% 29.85 in 10.0 mi WNW 10.4 mph - N/A   Clear
5:13 AM 3.2 °F -12.2 °F -0.4 °F 85% 29.86 in 10.0 mi West 10.4 mph - N/A   Clear
5:33 AM 3.2 °F -10.3 °F -0.4 °F 85% 29.86 in 10.0 mi West 8.1 mph - N/A   Clear
6:13 AM 3.2 °F - -0.4 °F 85% 29.87 in 10.0 mi Calm Calm - N/A   Clear
6:33 AM 3.2 °F -6.2 °F -2.2 °F 78% 29.87 in 10.0 mi WSW 4.6 mph - N/A   Clear
6:53 AM 3.2 °F -7.8 °F -0.4 °F 85% 29.86 in 10.0 mi SW 5.8 mph - N/A   Clear
7:13 AM 3.2 °F -9.1 °F -0.4 °F 85% 29.87 in 10.0 mi WSW 6.9 mph - N/A   Clear
7:33 AM 3.2 °F -9.1 °F -0.4 °F 85% 29.87 in 10.0 mi WSW 6.9 mph - N/A   Clear
7:53 AM 3.2 °F -10.3 °F -2.2 °F 78% 29.87 in 10.0 mi WSW 8.1 mph - N/A   Clear
8:13 AM 3.2 °F -13.1 °F -0.4 °F 85% 29.88 in 10.0 mi WSW 11.5 mph - N/A   Clear
8:33 AM 5.0 °F -10.0 °F -0.4 °F 78% 29.88 in 10.0 mi WSW 10.4 mph - N/A   Clear
8:53 AM 5.0 °F -11.6 °F -0.4 °F 78% 29.88 in 10.0 mi West 12.7 mph - N/A   Clear
9:13 AM 6.8 °F -7.8 °F -0.4 °F 72% 29.89 in 10.0 mi West 10.4 mph - N/A   Clear
9:33 AM 6.8 °F -7.8 °F -0.4 °F 72% 29.89 in 10.0 mi West 10.4 mph - N/A   Clear
9:53 AM 8.6 °F -5.5 °F 1.4 °F 73% 29.88 in 10.0 mi WSW 10.4 mph - N/A   Clear
10:13 AM 8.6 °F -5.5 °F 3.2 °F 79% 29.88 in 10.0 mi WSW 10.4 mph - N/A   Clear
10:33 AM 8.6 °F -6.3 °F 3.2 °F 79% 29.86 in 10.0 mi SSW 11.5 mph - N/A   Clear
10:53 AM 10.4 °F -5.4 °F 5.0 °F 79% 29.84 in 10.0 mi SW 13.8 mph - N/A   Clear
11:13 AM 12.2 °F -3.1 °F 6.8 °F 79% 29.84 in 10.0 mi SW 13.8 mph - N/A   Clear
11:33 AM 12.2 °F -4.8 °F 6.8 °F 79% 29.82 in 10.0 mi SW 17.3 mph 20.7 mph N/A   Scattered Clouds
12:13 PM 14.0 °F -2.0 °F 8.6 °F 79% 29.79 in 10.0 mi WSW 16.1 mph 25.3 mph N/A   Scattered Clouds
12:33 PM 14.0 °F -3.4 °F 8.6 °F 79% 29.79 in 10.0 mi WSW 19.6 mph 26.5 mph N/A   Mostly Cloudy
12:53 PM 14.0 °F -3.9 °F 8.6 °F 79% 29.78 in 10.0 mi WSW 20.7 mph 26.5 mph N/A   Overcast
1:13 PM 14.0 °F -4.7 °F 10.4 °F 86% 29.77 in 2.5 mi WSW 23.0 mph 29.9 mph N/A Snow Light Snow
1:33 PM 14.0 °F -5.1 °F 6.8 °F 73% 29.78 in 10.0 mi WSW 24.2 mph 33.4 mph N/A   Overcast
1:53 PM 12.2 °F -7.1 °F 6.8 °F 79% 29.79 in 10.0 mi West 23.0 mph 31.1 mph N/A   Overcast
2:13 PM 12.2 °F -7.5 °F 6.8 °F 79% 29.79 in 10.0 mi West 24.2 mph 32.2 mph N/A   Overcast
2:33 PM 12.2 °F -7.5 °F 6.8 °F 79% 29.80 in 10.0 mi West 24.2 mph 33.4 mph N/A   Overcast
2:53 PM 12.2 °F -8.2 °F 6.8 °F 79% 29.80 in 3.0 mi West 26.5 mph 29.9 mph N/A Snow Light Snow
3:13 PM 12.2 °F -7.1 °F 6.8 °F 79% 29.80 in 10.0 mi West 23.0 mph 34.5 mph N/A   Mostly Cloudy
3:33 PM 12.2 °F -7.1 °F 6.8 °F 79% 29.80 in 10.0 mi West 23.0 mph - N/A   Scattered Clouds
3:53 PM 12.2 °F -7.1 °F 6.8 °F 79% 29.80 in 10.0 mi WSW 23.0 mph 31.1 mph N/A   Mostly Cloudy
4:13 PM 12.2 °F -5.8 °F 6.8 °F 79% 29.81 in 10.0 mi West 19.6 mph 28.8 mph N/A   Mostly Cloudy
4:33 PM 12.2 °F -5.3 °F 5.0 °F 73% 29.81 in 10.0 mi WSW 18.4 mph 25.3 mph N/A   Scattered Clouds
4:53 PM 12.2 °F -4.3 °F 6.8 °F 79% 29.81 in 10.0 mi WSW 16.1 mph - N/A   Clear
5:13 PM 12.2 °F -4.3 °F 6.8 °F 79% 29.82 in 10.0 mi WSW 16.1 mph 26.5 mph N/A   Clear
5:33 PM 12.2 °F -5.3 °F 6.8 °F 79% 29.81 in 10.0 mi WSW 18.4 mph 26.5 mph N/A   Clear
5:53 PM 12.2 °F -5.8 °F 6.8 °F 79% 29.81 in 10.0 mi WSW 19.6 mph 24.2 mph N/A   Clear
6:13 PM 12.2 °F -5.8 °F 6.8 °F 79% 29.81 in 10.0 mi WSW 19.6 mph 24.2 mph N/A   Clear
6:33 PM 12.2 °F -4.8 °F 6.8 °F 79% 29.82 in 10.0 mi WSW 17.3 mph 23.0 mph N/A   Clear
6:53 PM 12.2 °F -4.8 °F 6.8 °F 79% 29.82 in 10.0 mi West 17.3 mph 21.9 mph N/A   Clear
7:13 PM 12.2 °F -6.3 °F 6.8 °F 79% 29.81 in 10.0 mi West 20.7 mph 27.6 mph N/A   Clear
7:33 PM 12.2 °F -7.1 °F 6.8 °F 79% 29.82 in 10.0 mi West 23.0 mph 28.8 mph N/A   Clear
7:53 PM 12.2 °F -5.3 °F 6.8 °F 79% 29.82 in 10.0 mi West 18.4 mph 27.6 mph N/A   Clear
8:13 PM 12.2 °F -5.3 °F 6.8 °F 79% 29.82 in 10.0 mi West 18.4 mph 25.3 mph N/A   Clear
8:33 PM 12.2 °F -6.3 °F 6.8 °F 79% 29.81 in 10.0 mi West 20.7 mph - N/A   Clear
8:53 PM 12.2 °F -4.8 °F 6.8 °F 79% 29.81 in 10.0 mi West 17.3 mph 20.7 mph N/A   Clear
9:13 PM 12.2 °F -4.3 °F 6.8 °F 79% 29.81 in 10.0 mi West 16.1 mph - N/A   Clear
9:33 PM 12.2 °F -2.5 °F 6.8 °F 79% 29.81 in 10.0 mi West 12.7 mph - N/A   Clear
9:53 PM 12.2 °F -4.3 °F 6.8 °F 79% 29.81 in 10.0 mi West 16.1 mph 20.7 mph N/A   Clear
10:13 PM 12.2 °F -3.7 °F 6.8 °F 79% 29.81 in 10.0 mi WSW 15.0 mph 19.6 mph N/A   Clear
10:33 PM 12.2 °F -1.8 °F 6.8 °F 79% 29.82 in 10.0 mi WSW 11.5 mph - N/A   Clear
10:53 PM 10.4 °F -3.3 °F 6.8 °F 85% 29.82 in 10.0 mi WSW 10.4 mph - N/A   Clear
11:13 PM 12.2 °F -3.7 °F 6.8 °F 79% 29.82 in 10.0 mi West 15.0 mph - N/A   Clear
11:33 PM 12.2 °F -3.1 °F 6.8 °F 79% 29.82 in 10.0 mi West 13.8 mph - N/A   Clear
11:53 PM 12.2 °F -2.5 °F 6.8 °F 79% 29.82 in 10.0 mi WSW 12.7 mph - N/A   Clear